Current Weather Conditions: station 63103

sailwx.info

Wind from 200 at 23 knots

Wave height 3.4 meters (11 feet), 7 second period

Air temperature 10.6° C
Dewpoint 7.2° C

Last reported at 2014-Oct-24 21:00 UTC.
Time now 2014-Oct-24 23:17 UTC

Location: N 61°12' E 001°06'.
View on Google Maps.

See reports from other nearby stations

  
Tides and Currents Weather Stations Pressure Air Temp Water Temp Dewpoint Dewpoint Depression Visibility Wind Speed Wind Dir Waves Ship Positions
date/time (UTC)wind fromknots sea level pressurealtimeterstation pressurevisibilityair tempwater tempwave heightnotes
2014-Oct-24 21:00 200 23 10.6 3.4
2014-Oct-24 20:00 210 23 10.6 3.4
2014-Oct-24 19:00 200 22 10.5 3.3
2014-Oct-24 18:00 210 22 10.5 3.4
2014-Oct-24 17:00 200 23 10.5 3.3
2014-Oct-24 16:00 210 22 10.5 3.3
2014-Oct-24 15:00 210 22 10.5 3.2
2014-Oct-24 14:00 210 20 10.5 3.4
2014-Oct-24 13:00 210 20 10.4 3.6
2014-Oct-24 12:00 220 22 10.5 3.6
2014-Oct-24 11:00 220 23 10.4 3.3
2014-Oct-24 10:00 220 20 10.3 3.5
2014-Oct-24 09:00 230 20 10.2 3.5
2014-Oct-24 08:00 230 20 10.2 3.5
2014-Oct-24 07:00 240 19 10.2 3.8
2014-Oct-24 06:00 240 20 10.3 3.6
2014-Oct-24 05:00 240 20 10.6 3.1
2014-Oct-24 04:00 250 25 10.8 3.3
2014-Oct-24 03:00 240 24 10.8 3.2
2014-Oct-24 02:00 230 20 11.0 3.1
2014-Oct-24 01:00 230 22 11.5 3.2
2014-Oct-24 00:00 220 22 11.4 3.2
2014-Oct-23 23:00 210 20 11.1 3.2
2014-Oct-23 22:00 200 24 11.2 3.3
2014-Oct-23 21:00 190 27 11.1 3.0
2014-Oct-23 20:00 180 23 11.3 3.2
2014-Oct-23 19:00 190 20 11.3 3.2
2014-Oct-23 18:00 190 20 11.2 3.0
2014-Oct-23 17:00 200 22 11.4 3.3
2014-Oct-23 16:00 190 19 11.3 3.1
2014-Oct-23 15:00 200 18 11.3 3.0
2014-Oct-23 14:00 210 20 11.0 3.3
2014-Oct-23 13:00 210 18 11.1 3.2
2014-Oct-23 12:00 220 18 11.0 3.2
2014-Oct-23 11:00 230 18 10.6 3.2
2014-Oct-23 10:00 230 19 11.3 3.4
2014-Oct-23 09:00 230 22 11.3 3.4
2014-Oct-23 08:00 230 25 11.4 3.3
2014-Oct-23 07:00 230 22 11.2 3.2
2014-Oct-23 06:00 220 22 11.3 3.5
2014-Oct-23 05:00 220 24 11.6 3.5
2014-Oct-23 04:00 220 26 11.4 3.8
2014-Oct-23 03:00 220 29 11.5 3.5
2014-Oct-23 02:00 210 26 11.5 3.2
2014-Oct-23 01:00 220 26 11.5 3.5
2014-Oct-23 00:00 220 26 11.4 3.6
2014-Oct-22 23:00 210 27 11.2 4.0